Terminal Aerodrome Forecast
Issued by NWS Pittsburgh, PA

Current Version | Previous Version | Graphics & Text | Print | Product List | Glossary On
Versions: 1 2 3 4 5 6 7 8 9 10 11 12 13 14 15 16 17 18 19 20 21 22 23 24 25
000
FTUS41 KPBZ 162000 AAA
TAFPIT
TAF AMD
KPIT 162056Z 1621/1724 VRB03KT P6SM SKC
     FM171400 14008KT P6SM SKC=

USA.gov is the U.S. government's official web portal to all federal, state and local government web resources and services.